Schneifelwetter: Wetterstation Hallschlag, 537 m . NN
Wetterdaten: Donnerstag, 23.12.2010
Datum Zeit Temp. A. Feuchte A. Luftdruck Regen Wind Richtung Richtung Sonnenschein Helligkeit T Regen Taupunkt Windchill
23.12.2010 00:09 -0,2 C 99 % 997 hPa 0,0 l/m 20,5 km/h (4 Bft) N-NO22.5 25 0 min 0 lux 0,00 min -0,3 C -10,1 C
23.12.2010 00:24 -0,2 C 99 % 997 hPa 0,0 l/m 23,5 km/h (4 Bft) N-NO22.5 30 0 min 0 lux 0,00 min -0,3 C -11,4 C
23.12.2010 00:39 -0,2 C 99 % 997 hPa 0,0 l/m 17,6 km/h (3 Bft) NO45 35 0 min 0 lux 0,00 min -0,3 C -8,7 C
23.12.2010 00:54 -0,2 C 99 % 997 hPa 0,0 l/m 14,6 km/h (3 Bft) NO45 50 0 min 0 lux 0,00 min -0,3 C -7,0 C
23.12.2010 01:09 -0,2 C 99 % 997 hPa 0,0 l/m 14,3 km/h (3 Bft) N-NO22.5 30 0 min 0 lux 0,00 min -0,3 C -6,8 C
23.12.2010 01:24 -0,3 C 99 % 997 hPa 0,0 l/m 14,0 km/h (3 Bft) NO22.5 40 0 min 0 lux 0,00 min -0,4 C -6,7 C
23.12.2010 01:39 -0,3 C 99 % 997 hPa 0,0 l/m 15,3 km/h (3 Bft) NO22.5 35 0 min 0 lux 0,00 min -0,4 C -7,5 C
23.12.2010 01:54 -0,3 C 99 % 997 hPa 0,0 l/m 19,6 km/h (3 Bft) N-NO22.5 30 0 min 0 lux 0,00 min -0,4 C -9,8 C
23.12.2010 02:09 -0,4 C 99 % 996 hPa 0,0 l/m 19,1 km/h (3 Bft) N-NO22.5 25 0 min 0 lux 0,00 min -0,5 C -9,7 C
23.12.2010 02:24 -0,5 C 99 % 997 hPa 0,0 l/m 18,3 km/h (3 Bft) NO45 45 0 min 0 lux 0,00 min -0,6 C -9,4 C
23.12.2010 02:39 -0,5 C 99 % 997 hPa 0,0 l/m 10,6 km/h (2 Bft) NO22.5 35 0 min 0 lux 0,00 min -0,6 C -4,5 C
23.12.2010 02:54 -0,6 C 99 % 997 hPa 0,0 l/m 17,4 km/h (3 Bft) NO22.5 35 0 min 0 lux 0,00 min -0,7 C -9,1 C
23.12.2010 03:09 -0,6 C 99 % 997 hPa 0,0 l/m 18,0 km/h (3 Bft) N-NO22.5 30 0 min 0 lux 0,00 min -0,7 C -9,4 C
23.12.2010 03:24 -0,6 C 99 % 997 hPa 0,0 l/m 0,0 km/h (0 Bft) NO22.5 35 0 min 0 lux 0,00 min -0,7 C -0,6 C
23.12.2010 03:39 -0,6 C 99 % 997 hPa 0,0 l/m 0,0 km/h (0 Bft) NO22.5 35 0 min 0 lux 0,00 min -0,7 C -0,6 C
23.12.2010 03:54 -0,6 C 99 % 996 hPa 0,0 l/m 0,0 km/h (0 Bft) N-NO 20 0 min 0 lux 0,00 min -0,7 C -0,6 C
23.12.2010 04:09 -0,6 C 99 % 996 hPa 0,0 l/m 0,0 km/h (0 Bft) N-NO 20 0 min 0 lux 0,00 min -0,7 C -0,6 C
23.12.2010 04:24 -0,6 C 99 % 997 hPa 0,0 l/m 0,0 km/h (0 Bft) N-NO 20 0 min 0 lux 0,00 min -0,7 C -0,6 C
23.12.2010 04:39 -0,6 C 99 % 996 hPa 0,0 l/m 0,0 km/h (0 Bft) N-NO 20 0 min 0 lux 0,00 min -0,7 C -0,6 C
23.12.2010 04:54 -0,6 C 99 % 996 hPa 0,0 l/m 0,0 km/h (0 Bft) N-NO 20 0 min 0 lux 0,00 min -0,7 C -0,6 C
23.12.2010 05:09 -0,6 C 99 % 996 hPa 0,0 l/m 0,0 km/h (0 Bft) N-NO 20 0 min 0 lux 0,00 min -0,7 C -0,6 C
23.12.2010 05:24 -0,6 C 99 % 997 hPa 0,0 l/m 0,0 km/h (0 Bft) N-NO 20 0 min 0 lux 0,00 min -0,7 C -0,6 C
23.12.2010 05:38 -0,7 C 99 % 996 hPa 0,0 l/m 0,0 km/h (0 Bft) N-NO 20 0 min 0 lux 0,00 min -0,8 C -0,7 C
23.12.2010 05:53 -0,8 C 99 % 997 hPa 0,0 l/m 0,0 km/h (0 Bft) N-NO 20 0 min 0 lux 0,00 min -0,9 C -0,8 C
23.12.2010 06:08 -1,0 C 99 % 996 hPa 5,7 l/m 0,0 km/h (0 Bft) N-NO 20 0 min 0 lux 15,00 min -1,1 C -1,0 C
23.12.2010 06:23 -1,0 C 99 % 996 hPa 0,0 l/m 0,0 km/h (0 Bft) N-NO 20 0 min 0 lux 0,00 min -1,1 C -1,0 C
23.12.2010 06:38 -1,0 C 99 % 996 hPa 0,0 l/m 0,0 km/h (0 Bft) N-NO 20 0 min 0 lux 0,00 min -1,1 C -1,0 C
23.12.2010 06:53 -1,2 C 99 % 996 hPa 0,0 l/m 0,0 km/h (0 Bft) N-NO 20 0 min 0 lux 0,00 min -1,3 C -1,2 C
23.12.2010 07:08 -1,3 C 99 % 996 hPa 0,0 l/m 0,0 km/h (0 Bft) N-NO 20 0 min 0 lux 0,00 min -1,4 C -1,3 C
23.12.2010 07:23 -1,4 C 99 % 996 hPa 0,0 l/m 0,0 km/h (0 Bft) N-NO 20 0 min 0 lux 0,00 min -1,5 C -1,4 C
23.12.2010 07:38 -1,4 C 99 % 996 hPa 0,0 l/m 0,0 km/h (0 Bft) N-NO 20 0 min 0 lux 0,00 min -1,5 C -1,4 C
23.12.2010 08:00 -1,5 C 99 % 996 hPa 0,0 l/m 0,0 km/h (0 Bft) N-NO 20 0 min 0 lux 0,00 min -1,6 C -1,5 C
23.12.2010 08:15 -1,5 C 99 % 996 hPa 0,0 l/m 0,0 km/h (0 Bft) N-NO 20 0 min 0 lux 0,00 min -1,6 C -1,5 C
23.12.2010 08:30 -1,5 C 99 % 996 hPa 0,0 l/m 0,0 km/h (0 Bft) N-NO 20 0 min 110 lux 0,00 min -1,6 C -1,5 C
23.12.2010 08:44 -1,8 C 99 % 996 hPa 0,0 l/m 0,0 km/h (0 Bft) N-NO 20 0 min 283 lux 0,00 min -1,9 C -1,8 C
23.12.2010 09:00 -1,9 C 99 % 997 hPa 0,0 l/m 0,0 km/h (0 Bft) N-NO 20 0 min 598 lux 0,00 min -2,0 C -1,9 C
23.12.2010 09:15 -1,9 C 99 % 997 hPa 0,0 l/m 0,0 km/h (0 Bft) N-NO 20 0 min 805 lux 0,00 min -2,0 C -1,9 C
23.12.2010 09:30 -1,9 C 99 % 997 hPa 0,0 l/m 0,0 km/h (0 Bft) N-NO 20 0 min 1,26 klux 0,00 min -2,0 C -1,9 C
23.12.2010 09:45 -2,0 C 99 % 997 hPa 0,0 l/m 0,0 km/h (0 Bft) N-NO 20 0 min 2,50 klux 0,00 min -2,1 C -2,0 C
23.12.2010 10:00 -1,9 C 99 % 997 hPa 0,0 l/m 0,0 km/h (0 Bft) N-NO 20 0 min 3,88 klux 0,00 min -2,0 C -1,9 C
23.12.2010 10:15 -1,9 C 99 % 997 hPa 0,0 l/m 0,0 km/h (0 Bft) N-NO 20 0 min 2,99 klux 0,00 min -2,0 C -1,9 C
23.12.2010 10:29 -1,8 C 99 % 997 hPa 0,0 l/m 0,0 km/h (0 Bft) N-NO 20 0 min 3,39 klux 0,00 min -1,9 C -1,8 C
23.12.2010 10:45 -1,8 C 99 % 997 hPa 0,0 l/m 0,0 km/h (0 Bft) N-NO 20 0 min 4,58 klux 0,00 min -1,9 C -1,8 C
23.12.2010 11:00 -1,8 C 99 % 997 hPa 0,0 l/m 0,0 km/h (0 Bft) N-NO 20 0 min 5,96 klux 0,00 min -1,9 C -1,8 C
23.12.2010 11:15 -1,7 C 99 % 996 hPa 0,0 l/m 0,0 km/h (0 Bft) N-NO 20 0 min 7,68 klux 0,00 min -1,8 C -1,7 C
23.12.2010 11:30 -1,6 C 99 % 996 hPa 0,0 l/m 0,0 km/h (0 Bft) N-NO 20 0 min 8,51 klux 0,00 min -1,7 C -1,6 C
23.12.2010 11:45 -1,6 C 99 % 997 hPa 0,0 l/m 0,0 km/h (0 Bft) N-NO 20 0 min 8,25 klux 0,00 min -1,7 C -1,6 C
23.12.2010 12:00 -1,4 C 99 % 997 hPa 0,0 l/m 0,0 km/h (0 Bft) N-NO 20 0 min 7,32 klux 0,00 min -1,5 C -1,4 C
23.12.2010 12:15 -1,5 C 99 % 997 hPa 0,0 l/m 0,0 km/h (0 Bft) N-NO 20 0 min 7,01 klux 0,00 min -1,6 C -1,5 C
23.12.2010 12:30 -1,6 C 99 % 997 hPa 0,0 l/m 0,0 km/h (0 Bft) N-NO 20 0 min 8,64 klux 0,00 min -1,7 C -1,6 C
23.12.2010 12:45 -1,7 C 99 % 997 hPa 0,0 l/m 0,0 km/h (0 Bft) N-NO 20 0 min 9,7 klux 0,00 min -1,8 C -1,7 C
23.12.2010 13:00 -1,7 C 99 % 997 hPa 0,0 l/m 0,0 km/h (0 Bft) N-NO 20 0 min 9,9 klux 0,00 min -1,8 C -1,7 C
23.12.2010 13:15 -2,0 C 98 % 997 hPa 0,0 l/m 0,0 km/h (0 Bft) N-NO 20 0 min 8,86 klux 0,00 min -2,3 C -2,0 C
23.12.2010 13:30 -2,2 C 99 % 997 hPa 0,0 l/m 0,0 km/h (0 Bft) N-NO 20 0 min 7,69 klux 0,00 min -2,3 C -2,2 C
23.12.2010 13:44 -2,0 C 99 % 996 hPa 0,0 l/m 0,0 km/h (0 Bft) N-NO 20 0 min 10,0 klux 0,00 min -2,1 C -2,0 C
23.12.2010 14:00 -2,1 C 98 % 996 hPa 0,0 l/m 0,0 km/h (0 Bft) N-NO 20 0 min 10,0 klux 0,00 min -2,4 C -2,1 C
23.12.2010 14:15 -2,2 C 98 % 996 hPa 0,0 l/m 0,0 km/h (0 Bft) N-NO 20 0 min 7,38 klux 0,00 min -2,5 C -2,2 C
23.12.2010 14:30 -2,3 C 99 % 996 hPa 0,0 l/m 0,0 km/h (0 Bft) N-NO 20 0 min 5,91 klux 0,00 min -2,4 C -2,3 C
23.12.2010 14:45 -2,3 C 99 % 996 hPa 0,0 l/m 0,0 km/h (0 Bft) N-NO 20 0 min 4,90 klux 0,00 min -2,4 C -2,3 C
23.12.2010 15:00 -2,4 C 98 % 996 hPa 0,0 l/m 0,0 km/h (0 Bft) N-NO 20 0 min 4,45 klux 0,00 min -2,7 C -2,4 C
23.12.2010 15:15 -2,4 C 99 % 996 hPa 0,0 l/m 0,0 km/h (0 Bft) N-NO 20 0 min 6,07 klux 0,00 min -2,5 C -2,4 C
23.12.2010 15:29 -2,6 C 98 % 996 hPa 0,0 l/m 0,0 km/h (0 Bft) N-NO 20 0 min 5,86 klux 0,00 min -2,9 C -2,6 C
23.12.2010 15:45 -2,8 C 98 % 996 hPa 0,0 l/m 0,0 km/h (0 Bft) N-NO 20 0 min 4,83 klux 0,00 min -3,1 C -2,8 C
23.12.2010 16:00 -3,0 C 98 % 996 hPa 0,0 l/m 0,0 km/h (0 Bft) N-NO 20 0 min 3,23 klux 0,00 min -3,3 C -3,0 C
23.12.2010 16:15 -3,3 C 98 % 996 hPa 0,0 l/m 0,0 km/h (0 Bft) N-NO 20 0 min 1,45 klux 0,00 min -3,6 C -3,3 C
23.12.2010 16:30 -3,5 C 98 % 997 hPa 0,0 l/m 0,0 km/h (0 Bft) N-NO 20 0 min 689 lux 0,00 min -3,8 C -3,5 C
23.12.2010 16:45 -3,8 C 98 % 997 hPa 0,0 l/m 0,0 km/h (0 Bft) N-NO 20 0 min 228 lux 0,00 min -4,1 C -3,8 C
23.12.2010 16:59 -3,8 C 98 % 997 hPa 0,0 l/m 0,0 km/h (0 Bft) N-NO 20 0 min 71 lux 0,00 min -4,1 C -3,8 C
23.12.2010 17:15 -4,2 C 98 % 997 hPa 0,0 l/m 0,0 km/h (0 Bft) N-NO 20 0 min 10 lux 0,00 min -4,5 C -4,2 C
23.12.2010 17:30 -4,3 C 98 % 997 hPa 0,0 l/m 0,0 km/h (0 Bft) N-NO 20 0 min 0 lux 0,00 min -4,6 C -4,3 C
23.12.2010 17:45 -4,5 C 98 % 997 hPa 0,0 l/m 0,0 km/h (0 Bft) N-NO 20 0 min 0 lux 0,00 min -4,8 C -4,5 C
23.12.2010 18:00 -4,6 C 98 % 997 hPa 0,0 l/m 0,0 km/h (0 Bft) N-NO 20 0 min 0 lux 0,00 min -4,9 C -4,6 C
23.12.2010 18:15 -4,7 C 98 % 997 hPa 0,0 l/m 0,0 km/h (0 Bft) N-NO 20 0 min 0 lux 0,00 min -5,0 C -4,7 C
23.12.2010 18:30 -4,8 C 98 % 997 hPa 0,0 l/m 0,0 km/h (0 Bft) N-NO 20 0 min 0 lux 0,00 min -5,1 C -4,8 C
23.12.2010 18:44 -4,8 C 99 % 997 hPa 0,0 l/m 0,0 km/h (0 Bft) N-NO 20 0 min 0 lux 0,00 min -4,9 C -4,8 C
23.12.2010 19:00 -4,8 C 99 % 997 hPa 0,0 l/m 0,0 km/h (0 Bft) N-NO 20 0 min 0 lux 0,00 min -4,9 C -4,8 C
23.12.2010 19:15 -4,8 C 99 % 997 hPa 0,0 l/m 0,0 km/h (0 Bft) N-NO 20 0 min 0 lux 0,00 min -4,9 C -4,8 C
23.12.2010 19:30 -4,8 C 99 % 997 hPa 0,0 l/m 0,0 km/h (0 Bft) N-NO 20 0 min 0 lux 0,00 min -4,9 C -4,8 C
23.12.2010 19:45 -4,8 C 99 % 997 hPa 0,0 l/m 0,0 km/h (0 Bft) N-NO 20 0 min 0 lux 0,00 min -4,9 C -4,8 C
23.12.2010 20:00 -4,7 C 99 % 997 hPa 0,0 l/m 0,0 km/h (0 Bft) N-NO 20 0 min 0 lux 0,00 min -4,8 C -4,7 C
23.12.2010 20:15 -4,7 C 99 % 997 hPa 0,0 l/m 0,0 km/h (0 Bft) N-NO 20 0 min 0 lux 0,00 min -4,8 C -4,7 C
23.12.2010 20:30 -4,7 C 99 % 997 hPa 0,0 l/m 0,0 km/h (0 Bft) N-NO 20 0 min 0 lux 0,00 min -4,8 C -4,7 C
23.12.2010 20:45 -4,7 C 99 % 997 hPa 0,0 l/m 0,0 km/h (0 Bft) N-NO 20 0 min 0 lux 0,00 min -4,8 C -4,7 C
23.12.2010 21:00 -4,6 C 99 % 997 hPa 0,0 l/m 0,0 km/h (0 Bft) N-NO 20 0 min 0 lux 0,00 min -4,7 C -4,6 C
23.12.2010 21:15 -4,5 C 99 % 997 hPa 0,0 l/m 0,0 km/h (0 Bft) N-NO 20 0 min 0 lux 0,00 min -4,6 C -4,5 C
23.12.2010 21:30 -4,4 C 99 % 998 hPa 0,0 l/m 0,0 km/h (0 Bft) N-NO 20 0 min 0 lux 0,00 min -4,5 C -4,4 C
23.12.2010 21:45 -4,2 C 99 % 998 hPa 0,0 l/m 0,0 km/h (0 Bft) N-NO 20 0 min 0 lux 0,00 min -4,3 C -4,2 C
23.12.2010 21:59 -4,0 C 99 % 998 hPa 0,0 l/m 0,0 km/h (0 Bft) N-NO 20 0 min 0 lux 0,00 min -4,1 C -4,0 C
23.12.2010 22:15 -4,0 C 99 % 997 hPa 0,0 l/m 0,0 km/h (0 Bft) N-NO 20 0 min 0 lux 0,00 min -4,1 C -4,0 C
23.12.2010 22:30 -4,0 C 99 % 997 hPa 0,0 l/m 0,0 km/h (0 Bft) N-NO 20 0 min 0 lux 0,00 min -4,1 C -4,0 C
23.12.2010 22:45 -4,0 C 99 % 997 hPa 0,0 l/m 0,0 km/h (0 Bft) N-NO 20 0 min 0 lux 0,00 min -4,1 C -4,0 C
23.12.2010 23:00 -3,8 C 99 % 998 hPa 0,0 l/m 0,0 km/h (0 Bft) N-NO 20 0 min 0 lux 0,00 min -3,9 C -3,8 C
23.12.2010 23:15 -3,6 C 99 % 998 hPa 0,0 l/m 0,0 km/h (0 Bft) N-NO 20 0 min 0 lux 0,00 min -3,7 C -3,6 C
23.12.2010 23:30 -3,7 C 99 % 998 hPa 0,0 l/m 0,0 km/h (0 Bft) N-NO 20 0 min 0 lux 0,00 min -3,8 C -3,7 C
23.12.2010 23:44 -3,8 C 98 % 997 hPa 0,0 l/m 0,0 km/h (0 Bft) N-NO 20 0 min 0 lux 0,00 min -4,1 C -3,8 C
_ Min-Zeit 18:30 13:15 02:09 - 03:24 - - - - - 18:30 00:24
Minimum _ -4,8 C 98 % 996 hPa - 0,0 km/h (0 Bft) - - - - - -5,1 C -11,4 C
_ Max-Zeit 00:09 00:09 21:30 06:08 00:24 - - 00:09 13:44 06:08 00:09 03:24
Maximum _ -0,2 C 99 % 998 hPa 5,7 l/m 23,5 km/h
N-NO (4 Bft)
- - 0 min 10,0 klux 15,00 min -0,3 C -0,6 C
Durchschnitt _ -2,3 C 99 % 997 hPa #5,7 l/m 2,3 km/h (1 Bft) NO - #0 min. 1,84 klux #15 min. -2,4 C -3,4 C